AirNav   Air Wisconsin pilot careers
 
 1480 users online  

O74 Elliot's Landing Airport
Mount Victory, Ohio, USA

GOING TO MOUNT VICTORY?


FAA INFORMATION EFFECTIVE 16 AUGUST 2018

Location

FAA Identifier: O74
Lat/Long: 40-31-29.0000N / 083-30-42.0000W
40-31.483333N / 083-30.700000W
40.5247222 / -83.5116667
(estimated)
Elevation: 1045 ft. / 319 m (estimated)
Variation: 05W (1995)
From city: 1 mile SE of MOUNT VICTORY, OH
Time zone: UTC -4 (UTC -5 during Standard Time)
Zip code: 43340

Airport Operations

Airport use: Open to the public
Activation date: 06/1995
Control tower: no
ARTCC: INDIANAPOLIS CENTER
FSS: DAYTON FLIGHT SERVICE STATION
NOTAMs facility: DAY (NOTAM-D service available)
Attendance: UNATNDD
Wind indicator: yes
Segmented circle: no

Airport Communications

CTAF: 122.9
WX AWOS-3 at EDJ (17 nm SW): 118.075 (937-599-4654)
WX AWOS-3 at MRT (19 nm S): 119.275 (937-644-2967)

Nearby radio navigation aids

VOR radial/distance  VOR name  Freq  Var
BUDr260/(21.1)BUCKEYE VOR109.8005W
FBCr159/28.1FLAG CITY VORTAC108.2002W
RODr065/28.1ROSEWOOD VORTAC117.5005W

 
NDB name  Hdg/Dist  Freq  Var  ID
TIFFIN207/36.826905WTII - .. ..

Airport Services

Runway Information

Runway 15/33

Dimensions: 2750 x 110 ft. / 838 x 34 m
Surface: turf, in good condition
Runway edge markings: 15/33 MARKED WITH TIRES ON EACH END.
RUNWAY 15  RUNWAY 33
Traffic pattern: leftleft
Obstructions: 63 ft. trees, 867 ft. from runway, 82 ft. left of centerline, 13:1 slope to clear35 ft. pline, 400 ft. from runway, 162 ft. left of centerline, 11:1 slope to clear

Airport Ownership and Management from official FAA records

Ownership: Privately-owned
Owner: ELLIOT & ELLIOTT INC
BOX 257 491 S MAIN ST
MT VICTORY, OH 43340-0257
Phone 937-354-2851
Manager: JOAN E. WAGNER
BOX 257 491 S MAIN ST
MT VICTORY, OH 43340-0257
Phone 937-354-2851

Airport Operational Statistics

Aircraft operations: avg 30/week *
100% transient general aviation
* for 12-month period ending 03 September 2016

Instrument Procedures

There are no published instrument procedures at O74.

Some nearby airports with instrument procedures:

I95 - Hardin County Airport (8 nm NW)
KEDJ - Bellefontaine Regional Airport (17 nm SW)
KMRT - Union County Airport (19 nm S)
KMNN - Marion Municipal Airport (21 nm E)
56D - Wyandot County Airport (23 nm NE)
 
Loc | Ops | Rwys | IFR | FBO | Links
Com | Nav | Svcs | Stats | Notes


 
Area around O74 (Elliot's Landing Airport)
 
Road maps at: MapQuest Bing Google
 
Aerial photo
WARNING: Photo may not be current or correct
Aerial photo of O74 (Elliot's Landing Airport)
Do you have a better or more recent aerial photo of Elliot's Landing Airport that you would like to share? If so, please send us your photo.

 
Sectional chart

 
Airport distance calculator
Flying to Elliot's Landing Airport? Find the distance to fly.

From to O74

Sunrise and sunset
Times for 16-Aug-2018
 Local
(UTC-4)
 Zulu
(UTC)
Morning civil twilight06:1710:17
Sunrise06:4710:47
Sunset20:3000:30
Evening civil twilight20:5900:59

Current date and time
Zulu (UTC)  16-Aug-2018 20:40:29
Local (UTC-4)  16-Aug-2018 16:40:29
 
METAR
KEDJ 
17nm SW 
162015Z AUTO 21009KT 5SM BKN008 21/21 A3002 RMK AO1
KMRT 
19nm S 
162015Z AUTO 23013G18KT 10SM OVC016 23/20 A3003 RMK AO2 T02280201
KMNN 
21nm E 
162000Z AUTO 21011G20KT 4SM BR FEW009 BKN016 OVC023 22/21 A3003 RMK AO2 T02220206
KDLZ 
23nm SE 
162016Z AUTO 20009KT 10SM SCT016 BKN022 OVC034 23/20 A3003 RMK AO2
KAOH 
25nm NW 
161953Z AUTO 21013G23KT 10SM OVC019 24/22 A2999 RMK AO2 SLP149 T02390217
KFDY 
30nm N 
161953Z AUTO 19009KT 10SM OVC020 25/22 A2998 RMK AO2 RAB32E44 SLP141 P0000 T02500217
KOSU 
33nm SE 
161953Z 20011G18KT 10SM SCT017 BKN024 OVC044 23/21 A3003 RMK AO2 RAB1857E27 SLP164 P0001 T02330211
TAF
KFDY 
30nm N 
161934Z 1620/1718 19009KT P6SM VCSH OVC020 TEMPO 1620/1624 5SM -RA BR OVC010 FM170000 20007KT P6SM VCSH OVC020 FM170400 22005KT 3SM BR OVC009 TEMPO 1709/1713 1SM BR OVC005 FM171500 22008KT P6SM OVC010
NOTAMs
Click for the latest NOTAMs
NOTAMs are issued by the DoD/FAA and will open in a separate window not controlled by AirNav.

 

 
 

Would you like to see your business listed on this page?

 If your business provides an interesting product or service to pilots, flight crews, aircraft, or users of the Elliot's Landing Airport, you should consider listing it here.  To start the listing process, click on the button below
 
Add a business
 

Other Pages about Elliot's Landing Airport

Update a link
 
Copyright © AirNav, LLC. All rights reserved. Privacy Policy  Contact